SCP
-0 -0 -0 -0 -0 -0 -0 -0 0 0 0 0 0 -0 0 0 -0 0 0 0 0 0
-0 -0 -0 -0 -0 0 -0 -0 -0 0 0 0 0 0 -0 0 0 0 0 0 0 0
-0 -0 -0 -0 -0 -0 -0 -0 -0 0 0 0 0 0 -0 -0 0 0 0 0 0 0
-0 -0 -0 -0 -0 -0 0 -0 -0 -0 0 0 0 0 0 -0 0 0 0 0 0 0
-0 -0 -0 -0 -0 -0 0 0 0 0 0 0 0 0 0 0 0 0 0 0 0 0
-0 0 -0 -0 -0 -0 0 0 0 0 0 0 0 0 0 0 0 0 0 0 0 0
0 0 0 0 0 0 0 0 0 0 0 0 0 -0 0 0 0 0 0 0 0 0
0 0 0 0 1 1 1 0 0 0 0 0 0 0 0 0 0 0 0 0 0 0
1 1 0 0 1 1 0 0 0 0 0 0 0 0 0 0 0 0 0 0 0 0
1 1 1 1 1 1 1 1 0 0 1 1 1 0 0 0 0 0 0 0 0 0
1 1 1 1 1 1 1 1 1 1 1 1 1 0 0 -0 0 0 0 0 0 0
1 1 1 1 1 1 1 0 1 1 1 1 1 0 0 0 0 0 0 0 0 0
0 0 1 1 1 1 1 1 1 1 1 1 1 0 0 0 0 0 0 0 0 0
0 0 0 0 1 1 1 1 1 1 1 1 1 0 0 0 0 0 0 0 0 0
Wind_Speed_500mb
43 40 35 32 26 19 17 10 15 17 17 17 17 14 12 9 6 8 8 14 21 23
46 44 40 34 31 25 22 18 19 18 18 19 21 16 13 11 10 9 8 11 15 17
45 46 44 40 39 35 29 27 25 24 20 21 23 20 16 16 14 11 10 11 16 18
52 45 48 46 43 41 37 34 32 29 26 24 25 23 23 20 19 17 13 10 11 16
53 56 49 50 46 47 46 42 39 36 34 31 29 30 28 24 22 22 19 16 14 15
58 57 57 52 46 45 47 51 51 49 46 41 37 35 35 30 27 26 26 23 18 18
41 45 53 53 48 45 45 48 52 56 57 50 45 42 39 38 34 32 30 29 25 21
60 68 65 59 56 52 50 51 53 54 56 59 58 52 49 46 42 39 34 33 31 26
36 45 54 56 55 53 52 51 53 58 59 62 63 60 57 52 43 41 38 36 33 31
21 28 37 42 48 53 53 46 48 50 54 55 56 52 39 71 40 37 41 40 36 35
11 17 22 27 39 47 49 49 48 52 54 53 53 46 48 35 41 44 51 47 37 37
20 18 18 21 29 32 38 47 51 54 55 59 56 53 52 44 59 53 56 50 46 39
24 27 27 25 26 26 32 41 40 46 52 56 56 55 51 45 49 54 60 62 58 46
27 32 31 32 34 34 33 32 34 39 46 53 55 55 50 50 53 56 64 72 66 55
Wind_Direction_500mb
234 234 237 242 247 247 253 287 244 261 259 259 269 269 261 266 256 274 238 218 218 225
235 235 237 237 242 244 248 258 250 254 257 248 254 259 251 260 251 284 285 216 212 218
239 240 242 243 245 249 250 250 251 251 258 250 250 253 251 251 247 258 276 242 229 227
247 245 247 246 246 247 250 251 253 253 256 252 250 250 250 247 244 247 253 251 240 239
260 250 251 252 251 249 248 250 254 255 254 250 243 247 248 249 252 255 255 257 252 253
259 252 252 252 254 253 250 250 252 253 255 250 246 244 248 245 244 246 250 251 253 252
253 244 249 252 254 257 259 256 254 252 252 254 248 247 249 246 244 243 246 249 245 242
259 263 262 260 258 260 262 261 257 255 254 254 250 246 246 244 240 238 240 243 245 239
273 270 268 266 264 261 261 266 263 257 257 255 256 254 251 248 247 234 237 238 240 242
277 265 267 263 259 258 261 268 264 261 260 264 264 271 281 276 250 252 239 236 234 238
330 299 284 278 268 264 264 266 268 262 263 265 264 251 276 285 223 256 238 233 233 238
352 341 332 308 284 276 269 265 261 262 264 267 267 263 265 243 239 246 229 226 226 226
324 322 315 306 298 291 277 270 270 267 262 262 266 268 268 259 243 240 225 218 219 212
315 311 307 301 292 290 287 280 274 273 267 264 266 269 271 266 258 246 229 221 215 221
Wind_Speed_850mb
43 40 35 32 26 19 17 10 15 17 17 17 17 14 12 9 6 8 8 14 21 23
46 44 40 34 31 25 22 18 19 18 18 19 21 16 13 11 10 9 8 11 15 17
45 46 44 40 39 35 29 27 25 24 20 21 23 20 16 16 14 11 10 11 16 18
52 45 48 46 43 41 37 34 32 29 26 24 25 23 23 20 19 17 13 10 11 16
53 56 49 50 46 47 46 42 39 36 34 31 29 30 28 24 22 22 19 16 14 15
58 57 57 52 46 45 47 51 51 49 46 41 37 35 35 30 27 26 26 23 18 18
41 45 53 53 48 45 45 48 52 56 57 50 45 42 39 38 34 32 30 29 25 21
60 68 65 59 56 52 50 51 53 54 56 59 58 52 49 46 42 39 34 33 31 26
36 45 54 56 55 53 52 51 53 58 59 62 63 60 57 52 43 41 38 36 33 31
21 28 37 42 48 53 53 46 48 50 54 55 56 52 39 71 40 37 41 40 36 35
11 17 22 27 39 47 49 49 48 52 54 53 53 46 48 35 41 44 51 47 37 37
20 18 18 21 29 32 38 47 51 54 55 59 56 53 52 44 59 53 56 50 46 39
24 27 27 25 26 26 32 41 40 46 52 56 56 55 51 45 49 54 60 62 58 46
27 32 31 32 34 34 33 32 34 39 46 53 55 55 50 50 53 56 64 72 66 55
Wind_Direction_850mb
234 234 237 242 247 247 253 287 244 261 259 259 269 269 261 266 256 274 238 218 218 225
235 235 237 237 242 244 248 258 250 254 257 248 254 259 251 260 251 284 285 216 212 218
239 240 242 243 245 249 250 250 251 251 258 250 250 253 251 251 247 258 276 242 229 227
247 245 247 246 246 247 250 251 253 253 256 252 250 250 250 247 244 247 253 251 240 239
260 250 251 252 251 249 248 250 254 255 254 250 243 247 248 249 252 255 255 257 252 253
259 252 252 252 254 253 250 250 252 253 255 250 246 244 248 245 244 246 250 251 253 252
253 244 249 252 254 257 259 256 254 252 252 254 248 247 249 246 244 243 246 249 245 242
259 263 262 260 258 260 262 261 257 255 254 254 250 246 246 244 240 238 240 243 245 239
273 270 268 266 264 261 261 266 263 257 257 255 256 254 251 248 247 234 237 238 240 242
277 265 267 263 259 258 261 268 264 261 260 264 264 271 281 276 250 252 239 236 234 238
330 299 284 278 268 264 264 266 268 262 263 265 264 251 276 285 223 256 238 233 233 238
352 341 332 308 284 276 269 265 261 262 264 267 267 263 265 243 239 246 229 226 226 226
324 322 315 306 298 291 277 270 270 267 262 262 266 268 268 259 243 240 225 218 219 212
315 311 307 301 292 290 287 280 274 273 267 264 266 269 271 266 258 246 229 221 215 221